Regional Weather Roundup
Issued by NWS Tiyan, Guam

Home | Current Version | Previous Version | Text Only | Print | Product List | Glossary On
Versions: 1 2 3 4 5 6 7 8 9 10 11 12 13 14 15 16 17 18 19 20 21 22 23 24 25 26 27 28 29 30 31 32 33 34 35 36 37 38 39 40 41 42 43 44 45 46 47 48 49 50
000
ASGM40 PGUM 050510
RWRGUM
WEATHER ROUNDUP FOR THE MARIANAS
NATIONAL WEATHER SERVICE TIYAN GU
300 PM CHST SAT SEP 05 2015

GUZ001>004-050600-
MARIANA ISLANDS-

CITY           SKY/WX    TMP DP  RH WIND       PRES   REMARKS
GUAM AIRPORT   PTSUNNY   84  81  89 W13G18    29.77F HX  98
ANDERSEN AFB   MOSUNNY   86  75  70 W16G22    29.77F HX  95
ROTA AIRPORT   PTSUNNY   84  77  79 SW12G17   29.76F HX  94
TINIAN AP      MOSUNNY   84  77  79 SW10      29.73F HX  94
SAIPAN AP      MOSUNNY   86  79  79 SW9       29.75S HX  99

$$




USA.gov is the U.S. government's official web portal to all federal, state and local government web resources and services.